• MPC Preparation (Info)

  • MPEC 2016-X36 : 2016 XH

    The following Minor Planet Electronic Circular may be linked-to from your own Web pages, but must not otherwise be redistributed electronically.

    A form allowing access to any MPEC is at the bottom of this page.


    Read MPEC 2016-X35 Read MPEC 2016-X37


    M.P.E.C. 2016-X36                                Issued 2016 Dec. 3, 17:59 UT
    
         The Minor Planet Electronic Circulars contain information on unusual
             minor planets and routine data on comets.  They are published
        on behalf of Division F of the International Astronomical Union by the
              Minor Planet Center, Smithsonian Astrophysical Observatory,
                              Cambridge, MA 02138, U.S.A.
    
                 Prepared using the Tamkin Foundation Computer Network
    
                                  MPC@CFA.HARVARD.EDU
                URL https://www.minorplanetcenter.net/    ISSN 1523-6714
    
                                        2016 XH
    
    Observations:
         K16X00H* C2016 12 01.25729 04 54 12.21 +27 53 59.7          20.1 VqEX036G96
         K16X00H  C2016 12 01.26160 04 54 16.02 +27 54 38.4          20.5 VqEX036G96
         K16X00H  C2016 12 01.26600 04 54 19.87 +27 55 18.6          21.1 VqEX036G96
         K16X00H  C2016 12 01.27029 04 54 23.64 +27 55 57.8          20.2 VqEX036G96
         K16X00H  C2016 12 01.30503404 54 53.59 +28 01 08.9          20.1 GUEX036H01
         K16X00H  C2016 12 01.31196204 54 59.69 +28 02 11.1          20.4 GUEX036H01
         K16X00H  C2016 12 01.31415 04 55 02.25 +28 02 35.0                qEX036I52
         K16X00H  C2016 12 01.31527 04 55 03.24 +28 02 45.5                qEX036I52
         K16X00H  C2016 12 01.31638 04 55 04.24 +28 02 55.6          22.0 VqEX036I52
         K16X00H  C2016 12 01.31988104 55 06.65 +28 03 22.0          20.5 GUEX036H01
         K16X00H  C2016 12 01.32621404 55 12.23 +28 04 18.6          20.5 GUEX036H01
         K16X00H  C2016 12 01.36251 04 55 44.75 +28 09 45.7          20.6 VqEX036I52
         K16X00H  C2016 12 01.36709 04 55 48.81 +28 10 25.9                qEX036I52
         K16X00H "C2016 12 02.28460505 10 19.10 +30 20 48.5          20.0 RtEX036705
         K16X00H "C2016 12 02.28562305 10 19.93 +30 20 56.2          20.0 RtEX036705
         K16X00H "C2016 12 02.28663705 10 20.85 +30 21 05.1          20.0 RtEX036705
         K16X00H  C2016 12 03.08751 05 22 39.98 +32 03 16.1          20.1 VSEX036033
         K16X00H  C2016 12 03.08987 05 22 42.07 +32 03 33.1          19.9 VSEX036033
         K16X00H  C2016 12 03.09225 05 22 44.15 +32 03 50.0          20.2 VSEX036033
         K16X00H  C2016 12 03.16126 05 23 45.53 +32 11 57.6          20.0 VSEX036033
         K16X00H  C2016 12 03.16409 05 23 48.08 +32 12 17.7          19.9 VSEX036033
         K16X00H  C2016 12 03.16692 05 23 50.64 +32 12 37.6          20.4 VSEX036033
         K16X00H  C2016 12 03.16975 05 23 53.16 +32 12 57.3          20.2 VSEX036033
         K16X00H  C2016 12 03.17258 05 23 55.71 +32 13 16.8          19.9 VSEX036033
    
    Observer details:
    033 Karl Schwarzschild Observatory, Tautenburg.  Observers B. Stecklum,
        C. Hoegner.  Measurer B. Stecklum.  1.34-m f/3 Schmidt + CCD.
    705 Apache Point.  Observers K. Nault, M. Hammergren, M. Brucker.  Measurer
        K. Nault.  3.5-m f/10 reflector + CCD.
    G96 Mt. Lemmon Survey.  Observer R. A. Kowalski.  Measurers E. J. Christensen,
        D. C. Fuls, A. R. Gibbs, A. D. Grauer, J. A. Johnson, R. A. Kowalski,
        S. M. Larson, G. J. Leonard, R. G. Matheny, R. L. Seaman, F. C. Shelly.
        1.5-m reflector + 10K CCD.
    H01 Magdalena Ridge Observatory, Socorro.  Observers W. H. Ryan, E. V. Ryan.
        Measurer W. H. Ryan.  2.4-m f/8.9 reflector + CCD.
    I52 Steward Observatory, Mt. Lemmon Station.  Observer J. A. Johnson.
        Measurers E. J. Christensen, D. C. Fuls, A. R. Gibbs, A. D. Grauer,
        J. A. Johnson, R. A. Kowalski, S. M. Larson, G. J. Leonard, R. G. Matheny,
        R. L. Seaman, F. C. Shelly.  1.0-m reflector + CCD.
    
    Orbital elements:
    2016 XH                                                  Earth MOID = 0.0495 AU
    Epoch 2017 Feb. 16.0 TT = JDT 2457800.5                 MPC
    M  23.16607              (2000.0)            P               Q
    n   0.28539112     Peri.  357.61311     +0.43155004     -0.89789690
    a   2.2847696      Node    66.81004     +0.82920813     +0.35692327
    e   0.5467895      Incl.    5.42262     +0.35521604     +0.25765661
    P   3.45           H   26.0           G   0.15           U   7
    Residuals in seconds of arc
    161201 G96  0.1+  1.0+    161201 I52  0.2+  0.2+    161203 033  0.2-  0.1-
    161201 G96  0.2+  0.1+    161201 H01  0.2+  0.1-    161203 033  0.1-  0.0
    161201 G96  0.3-  0.0     161201 H01  0.3+  0.0     161203 033  0.4-  0.1-
    161201 G96  0.5-  0.0     161201 I52  0.6-  0.2-    161203 033  0.1-  0.2-
    161201 H01  0.3+  0.0     161201 I52  0.3-  0.4-    161203 033  0.1+  0.2+
    161201 H01  0.4+  0.0     161202 705  0.6+  0.0     161203 033  0.3+  0.3+
    161201 I52  0.2-  0.4-    161202 705  0.2-  0.6-    161203 033  0.0   0.3+
    161201 I52  0.1-  0.0     161202 705  0.3+  0.0     161203 033  0.0   0.0
    
    Ephemeris:
    2016 XH                  a,e,i = 2.28, 0.55, 5                   q = 1.0355
    Date    TT    R. A. (2000) Decl.     Delta      r     Elong.  Phase     V
    2016 11 03    00 58 37.2 -22 11 27   0.1136  1.0767   136.1    39.7    23.0
    ...
    2016 11 18    02 07 17.0 -08 13 26   0.06347 1.0412   145.2    32.8    21.5
    ...
    2016 11 26    03 34 21.7 +12 24 55   0.04949 1.0354   168.3    11.1    20.2
    ...
    2016 12 02    05 05 49.1 +29 41 47   0.05237 1.0374   169.4    10.1    20.3
    2016 12 03    05 21 23.0 +31 53 25   0.05400 1.0383   166.2    13.1    20.5
    2016 12 04    05 36 35.5 +33 49 32   0.05591 1.0393   163.3    15.8    20.7
    ...
    2016 12 10    06 54 12.3 +40 46 28   0.07178 1.0484   151.5    26.6    21.6
    ...
    2016 12 18    07 56 12.6 +43 13 02   0.09980 1.0684   146.3    30.7    22.5
    ...
    2017 01 02    08 37 22.9 +42 46 43   0.1627  1.1274   150.2    25.7    23.5
    
    A. U. Tomatic                (C) Copyright 2016 MPC           M.P.E.C. 2016-X36
    

    Read MPEC 2016-X35 Read MPEC 2016-X37


    MPEC number:

    Enter an MPEC number in one of the following forms:

    • 1997-B01 (the full form)
    • J97B01 (the packed version of the full form)
    • B01 (the abbreviated form)